Lexington Weather

Lexington, Massachusetts, USA

29°F
4/1/2020 3:41am 
  • Lexington Conditions: Clear
  • Temperature: 29.3°F / -1.5°CColder 0.4°F than last hour.
  • Dew Point: 27.3°FDecreased 0.4°Fsince last hour.
  • Relative Humidity: 92
  • Wind: Wind from ESE ESE 1 mph, 10-min avg: Calm, gust: 2 mph
  • Barometer: 29.88 in Steady
  • Visibility: 10 miles
  • Snow Today: 0.0 in
  •   

Regional Weather Roundup
for Boston / Norton, MA

        
000
ASUS41 KBOX 310604
RWRBOX

REGIONAL WEATHER ROUNDUP
NATIONAL WEATHER SERVICE BOSTON/NORTON MA
200 AM EDT TUE MAR 31 2020

NOTE:  "FAIR" INDICATES FEW OR NO CLOUDS BELOW 12,000 FEET WITH NO 
SIGNIFICANT WEATHER AND/OR OBSTRUCTIONS TO VISIBILITY.

MAZALL-310700-
EASTERN MASSACHUSETTS
  
CITY           SKY/WX    TMP DP  RH WIND       PRES   REMARKS
BOSTON         CLOUDY    36  34  92 NE17      30.04S WCI  26          
6HR MIN TEMP:  36; 6HR MAX TEMP:  38; 6HR PCP:  0.02;                

BEVERLY        LGT RAIN  36  33  89 NE10      30.03F WCI  28          
LAWRENCE       CLOUDY    34  33  96 N12       30.06S WCI  25          
BEDFORD        CLOUDY    37  33  85 NE9       30.04R WCI  30          
BLUE HILL        N/A     34  34 100 NE7       30.00R WCI  28          
NORWOOD        LGT RAIN  38  34  85 NE7       30.04R                  
MARSHFIELD     CLOUDY    39  36  87 NE17G26   30.02R WCI  30          
PLYMOUTH       CLOUDY    38  34  85 NE9G22      N/A  WCI  31          
TAUNTON        LGT RAIN  36  34  92 VRB5      30.02R FOG              
NEW BEDFORD    CLOUDY    36  36 100 N5        30.00R                  
$$

MAZALL-310700-
CAPE COD AND THE ISLANDS
  
CITY           SKY/WX    TMP DP  RH WIND       PRES   REMARKS
FALMOUTH       DRIZZLE   36  36 100 NE17      29.99R WCI  25          
HYANNIS        CLOUDY    39  34  82 NE14      29.96S WCI  31          
CHATHAM        CLOUDY    38  33  82 NE14G23   29.99R WCI  30          
PROVINCETOWN   CLOUDY    38  33  82 NE18G26   30.01S WCI  28          
NANTUCKET      CLOUDY    38  33  82 NE17      29.96R WCI  28          
MARTHAS VNYRD  LGT RAIN  38  35  89 NE12      29.98R FOG     WCI  30  
$$
 
MAZALL-310700-
CENTRAL AND WESTERN MASSACHUSETTS
  
CITY           SKY/WX    TMP DP  RH WIND       PRES   REMARKS
WORCESTER      LGT SNOW  33  31  92 NE9       30.01R FOG     WCI  25  
6HR MIN TEMP:  33; 6HR MAX TEMP:  36; 6HR PCP:  0.01;                

FITCHBURG      CLOUDY    35  31  85 NE7       30.06R WCI  29          
ORANGE         CLOUDY    37  33  85 N3        30.05R                  
SPRINGFIELD    CLOUDY    37  34  87 NE3       30.03S                  
WESTFIELD      CLOUDY    37  35  92 N5        30.04S                  
NORTH ADAMS    CLOUDY    37  30  75 E8        30.02R WCI  31          
PITTSFIELD     FLURRIES  35  31  85 E3        29.98S                  
$$
 
RIZALL-310700-
RHODE ISLAND
  
CITY           SKY/WX    TMP DP  RH WIND       PRES   REMARKS
PROVIDENCE     CLOUDY    38  36  92 NE10      30.03R WCI  31          
6HR MIN TEMP:  37; 6HR MAX TEMP:  40; 6HR PCP:  0.01;                

NEWPORT        CLOUDY    39  34  82 NE10      30.00S                  
BLOCK ISLAND   MIX PCPN  37  35  92 NE13G18   30.00S WCI  29          
SMITHFIELD     MIX PCPN  36  35  96 NE7       30.02R WCI  30          
WESTERLY       CLOUDY    41  34  76 N8        30.01S                  
$$
 
CTZALL-310700-
CONNECTICUT
  
CITY           SKY/WX    TMP DP  RH WIND       PRES   REMARKS
BRADLEY INTL   CLOUDY    38  34  85 N8        30.04R                  
6HR MIN TEMP:  38; 6HR MAX TEMP:  42; 6HR PCP: TRACE;                

HARTFORD       CLOUDY    40  34  79 N7        30.04R                  
BRIDGEPORT     CLOUDY    43  36  76 NE7       30.01R                  
DANBURY        CLOUDY    40  36  86 NE8       30.01R                  
GROTON         CLOUDY    39  35  86 NE9       30.01S                  
NEW HAVEN      CLOUDY    43  36  76 NE8       30.01S                  
CHESTER        CLOUDY    39  36  87 NE7       30.01R                  
MERIDEN        CLOUDY    40  33  76 NE3       30.03R                  
WILLIMANTIC    CLOUDY    38  33  82 N8        30.02S                  
OXFORD         LGT RAIN  38  35  89 NE7       30.01R                  
$$

MEZ002-015-021-024-NHZ003-005-008-011-012-014-VTZ005-008-310700-
NORTHERN NEW ENGLAND
  
CITY           SKY/WX    TMP DP  RH WIND       PRES   REMARKS
PORTLAND ME    CLOUDY    34  29  82 N10       30.09S WCI  26          
6HR MIN TEMP:  34; 6HR MAX TEMP:  36; 6HR PCP: TRACE;                

BANGOR ME      CLOUDY    31  25  78 N13       30.09F WCI  21          
CONCORD NH     LGT SNOW  33  30  88 NE7       30.07S FOG     WCI  27  
MANCHESTER NH  CLOUDY    35  31  85 N8        30.05S WCI  29          
NASHUA NH      CLOUDY    35  34  96 N5        30.07S WCI  31          
PORTSMOUTH NH  CLOUDY    34  31  91 N10       30.05F WCI  26          
JAFFREY NH     CLOUDY    33  32  96 VRB3      30.02S                  
KEENE NH       CLOUDY    34  32  92 CALM      30.06R                  
BURLINGTON VT  LGT RAIN  38  35  89 SE3       30.04R                  
MT. WASHINGTON NOT AVBL                                               
$$

NYZ052-076-310700-
EASTERN NEW YORK
  
CITY           SKY/WX    TMP DP  RH WIND       PRES   REMARKS
ALBANY         LGT RAIN  41  35  79 S5        30.02S                  
6HR MIN TEMP:  41; 6HR MAX TEMP:  46; 6HR PCP:  0.07;                

NEW YORK CITY  LGT RAIN  44  40  85 E7        29.99S FOG              
6HR MIN TEMP:  44; 6HR MAX TEMP:  47; 6HR PCP:  0.10;                

$$
 
ANZALL-310700-
MARINE OBSERVATIONS
  
STATION/POSITION TIME  TEMP    WIND        PRES    VSBY  WAVE
                       AIR SEA DIR/SP/G                  HT/PER
                 (UTC) (F)     (DEG/KT/KT) (MB)    (MI)  (FT/S)
BOSTON BUOY      0550   39 42   40/ 17/ 23 1015.9F         9/ 8
BUZZARDS BAY     0500           20/ 15/ 18 1016.3R
NANTUCKET SOUND  0540                        N/A           3/ 4
MASS BAY-STELLWA 0504   37 42   70/ 19/ 21 1015.2R  1 7/8 11/11
ISLE OF SHOALS   0500   36      30/ 20/ 24 1017.3S
S OF BLOCK IS    0530      44                N/A           5/ 9
$$

......................KEY.........................
  SKY/WX - SKY CONDITION/PRESENT WEATHER
  TMP    - TEMPERATURE IN FAHRENHEIT
  DWPT   - DEWPOINT IN FAHRENHEIT
  RH     - RELATIVE HUMIDITY IN PERCENT
  WIND   - DIRECTION AND SPEED IN MPH
  PRES   - MEAN SEA LEVEL PRESSURE IN INCHES OF HG
  WCI    - WIND CHILL INDEX
  VSB    - VISIBILITY IN MILES
  HX     - HEAT INDEX
  TC     - TEMPERATURE IN CELSIUS
  VRB    - VARIABLE WIND DIRECTION
  N/A    - NOT AVAILABLE
  
      

Other recent Regional Weather Roundups

Wed Apr 1, 3:04am

Wed Apr 1, 2:04am

Wed Apr 1, 1:04am

Wed Apr 1, 12:04am

Tue Mar 31, 11:04pm

Tue Mar 31, 10:04pm

Tue Mar 31, 9:04pm

Tue Mar 31, 8:04pm

Tue Mar 31, 7:04pm

Tue Mar 31, 6:04pm

Tue Mar 31, 4:04pm

Tue Mar 31, 3:04pm

Tue Mar 31, 2:04pm

Tue Mar 31, 1:04pm

Tue Mar 31, 12:05pm

Tue Mar 31, 11:04am

Tue Mar 31, 10:05am

Tue Mar 31, 9:04am

Tue Mar 31, 8:04am

Tue Mar 31, 7:05am

Tue Mar 31, 6:04am

Tue Mar 31, 5:04am

Tue Mar 31, 4:04am

Tue Mar 31, 3:04am

Tue Mar 31, 1:04am

Tue Mar 31, 12:04am

Mon Mar 30, 11:04pm

Mon Mar 30, 10:04pm

Mon Mar 30, 9:05pm

Mon Mar 30, 8:04pm

Mon Mar 30, 7:04pm

Mon Mar 30, 6:04pm

Mon Mar 30, 5:05pm

Mon Mar 30, 4:04pm

Mon Mar 30, 3:04pm

Mon Mar 30, 2:04pm

Mon Mar 30, 1:04pm

Mon Mar 30, 12:04pm

Mon Mar 30, 11:04am

Mon Mar 30, 10:04am

Mon Mar 30, 9:04am

Mon Mar 30, 8:04am

Mon Mar 30, 7:04am

Mon Mar 30, 6:04am

Mon Mar 30, 5:04am

Mon Mar 30, 4:04am

Mon Mar 30, 3:05am

Mon Mar 30, 2:04am

Mon Mar 30, 1:04am

Mon Mar 30, 12:04am

Sun Mar 29, 11:04pm

Sun Mar 29, 10:05pm

Sun Mar 29, 9:04pm

Sun Mar 29, 8:04pm

Sun Mar 29, 7:04pm

Sun Mar 29, 6:04pm

Sun Mar 29, 5:05pm

Sun Mar 29, 4:04pm

Sun Mar 29, 3:04pm

Sun Mar 29, 2:04pm

Sun Mar 29, 1:05pm

Sun Mar 29, 12:04pm

Sun Mar 29, 11:04am

Sun Mar 29, 10:04am

Sun Mar 29, 9:04am

Sun Mar 29, 8:04am

Sun Mar 29, 7:04am

Sun Mar 29, 6:04am

Sun Mar 29, 5:04am

Sun Mar 29, 4:04am

Meta data:

ID: bea68dc5-0389-4643-8419-c89f1dcb23df
Link: https://api.weather.gov/products/bea68dc5-0389-4643-8419-c89f1dcb23df